Clovis, NM

9:07 PM MDT on September 25, 2017 (GMT -0600)
Clovis Municipal

Weather History for KCVN - September, 2012

Change the Weather History Date:

Friday, September 14, 2012

  Actual Average Record
Temperature  
Mean Temperature 57 °F -  
Max Temperature 68 °F 81 °F 97 °F (1917)
Min Temperature 46 °F 54 °F 39 °F (1959)
Degree Days  
Heating Degree Days 8    
Growing Degree Days 7 (Base 50)    
Moisture  
Dew Point 37 °F    
Average Humidity 52    
Maximum Humidity 87    
Minimum Humidity 23    
Precipitation  
Precipitation 0.00 in - - ()
Sea Level Pressure  
Sea Level Pressure 30.42 in    
Wind  
Wind Speed 13 mph (NNE)    
Max Wind Speed 21 mph    
Max Gust Speed 28 mph    
Visibility 10 miles    
Events      
Averages and records for this station are not official NWS values.
T = Trace of Precipitation, MM = Missing Value Source: NWS Daily Summary

Daily Weather History Graph

Daily Weather History Graph

Search for Another Location

Airport or City:

Trip Planner

Search our weather history database for the weather conditions in past years. The results will help you decide how hot, cold, wet, or windy it might be!

Date:

Astronomy

Sep. 14, 2012 Rise Set
Actual Time 6:35 AM MDT 6:59 PM MDT
Civil Twilight 6:09 AM MDT 7:24 PM MDT
Nautical Twilight 5:40 AM MDT 7:54 PM MDT
Astronomical Twilight 5:10 AM MDT 8:24 PM MDT
Moon 5:03 AM MDT (9/14) 5:57 PM MDT (9/14)
Length of Visible Light 13h 14m
Length of Day
12h 24m
Waning Crescent, 2% of the Moon is Illuminated
Sep 14
Waning Crescent
Sep 15
New
Sep 22
First Quarter
Sep 29
Full
Oct 8
Last Quarter

Hourly Weather History & Observations

Time (MDT) Temp. Windchill Dew Point Humidity Pressure Visibility Wind Dir Wind Speed Gust Speed Precip Events Conditions
12:15 AM 51.8 °F - 46.4 °F 82% 30.46 in 10.0 mi NE 10.4 mph - N/A   Clear
12:35 AM 51.8 °F - 44.6 °F 76% 30.46 in 10.0 mi NE 10.4 mph - N/A   Scattered Clouds
12:55 AM 51.8 °F - 44.6 °F 76% 30.46 in 10.0 mi NE 10.4 mph - N/A   Mostly Cloudy
1:15 AM 51.8 °F - 46.4 °F 82% 30.46 in 10.0 mi NNE 10.4 mph - N/A   Mostly Cloudy
1:35 AM 51.8 °F - 46.4 °F 82% 30.45 in 10.0 mi NNE 15.0 mph - N/A   Overcast
1:55 AM 51.8 °F - 44.6 °F 76% 30.44 in 10.0 mi NNE 13.8 mph - N/A   Mostly Cloudy
2:15 AM 51.8 °F - 44.6 °F 76% 30.43 in 10.0 mi NNE 16.1 mph - N/A   Scattered Clouds
2:35 AM 51.8 °F - 44.6 °F 76% 30.43 in 10.0 mi NNE 16.1 mph - N/A   Scattered Clouds
2:55 AM 50.0 °F - 44.6 °F 82% 30.43 in 10.0 mi NNE 17.3 mph - N/A   Scattered Clouds
3:15 AM 50.0 °F - 44.6 °F 82% 30.43 in 10.0 mi NNE 13.8 mph - N/A   Partly Cloudy
3:35 AM 50.0 °F - 44.6 °F 82% 30.43 in 10.0 mi NNE 10.4 mph - N/A   Clear
3:55 AM 50.0 °F - 44.6 °F 82% 30.43 in 10.0 mi NNE 12.7 mph - N/A   Clear
4:15 AM 50.0 °F - 42.8 °F 76% 30.43 in 10.0 mi NNE 10.4 mph - N/A   Clear
4:35 AM 48.2 °F - 42.8 °F 82% 30.43 in 10.0 mi North 11.5 mph - N/A   Clear
4:55 AM 48.2 °F - 42.8 °F 82% 30.43 in 10.0 mi North 11.5 mph - N/A   Clear
5:15 AM 48.2 °F - 42.8 °F 82% 30.43 in 10.0 mi North 13.8 mph - N/A   Clear
5:35 AM 48.2 °F - 42.8 °F 82% 30.43 in 10.0 mi North 13.8 mph - N/A   Clear
5:55 AM 48.2 °F - 42.8 °F 82% 30.43 in 10.0 mi North 13.8 mph - N/A   Clear
6:15 AM 46.4 °F 41.5 °F 41.0 °F 81% 30.44 in 10.0 mi North 10.4 mph - N/A   Clear
6:35 AM 46.4 °F 40.7 °F 41.0 °F 81% 30.44 in 10.0 mi North 12.7 mph - N/A   Clear
6:55 AM 46.4 °F 40.4 °F 42.8 °F 87% 30.44 in 10.0 mi North 13.8 mph - N/A   Clear
7:15 AM 48.2 °F - 42.8 °F 82% 30.45 in 10.0 mi North 13.8 mph - N/A   Clear
7:35 AM 48.2 °F - 41.0 °F 76% 30.45 in 10.0 mi North 18.4 mph - N/A   Clear
7:55 AM 50.0 °F - 41.0 °F 71% 30.45 in 10.0 mi North 17.3 mph - N/A   Scattered Clouds
8:15 AM 51.8 °F - 39.2 °F 62% 30.45 in 10.0 mi NNE 16.1 mph - N/A   Scattered Clouds
8:35 AM 51.8 °F - 39.2 °F 62% 30.45 in 10.0 mi NNE 16.1 mph - N/A   Clear
8:55 AM 53.6 °F - 39.2 °F 58% 30.46 in 10.0 mi NNE 19.6 mph - N/A   Clear
9:15 AM 53.6 °F - 39.2 °F 58% 30.46 in 10.0 mi NNE 16.1 mph - N/A   Clear
9:35 AM 55.4 °F - 39.2 °F 54% 30.46 in 10.0 mi NNE 16.1 mph 21.9 mph N/A   Clear
9:55 AM 57.2 °F - 39.2 °F 51% 30.46 in 10.0 mi NNE 18.4 mph - N/A   Clear
10:15 AM 57.2 °F - 39.2 °F 51% 30.47 in 10.0 mi NNE 18.4 mph - N/A   Clear
10:35 AM 60.8 °F - 37.4 °F 42% 30.46 in 10.0 mi NNE 18.4 mph - N/A   Clear
10:55 AM 60.8 °F - 37.4 °F 42% 30.46 in 10.0 mi NNE 18.4 mph 25.3 mph N/A   Clear
11:15 AM 62.6 °F - 35.6 °F 37% 30.46 in 10.0 mi NNE 20.7 mph 26.5 mph N/A   Clear
11:35 AM 62.6 °F - 35.6 °F 37% 30.46 in 10.0 mi NNE 19.6 mph 25.3 mph N/A   Clear
11:55 AM 64.4 °F - 35.6 °F 34% 30.45 in 10.0 mi NNE 18.4 mph 25.3 mph N/A   Clear
12:15 PM 64.4 °F - 33.8 °F 32% 30.45 in 10.0 mi NNE 19.6 mph 26.5 mph N/A   Clear
12:35 PM 64.4 °F - 32.0 °F 30% 30.44 in 10.0 mi NNE 17.3 mph 26.5 mph N/A   Clear
12:55 PM 66.2 °F - 30.2 °F 26% 30.44 in 10.0 mi NE 19.6 mph 25.3 mph N/A   Clear
1:15 PM 66.2 °F - 33.8 °F 30% 30.43 in 10.0 mi NNE 19.6 mph 26.5 mph N/A   Clear
1:35 PM 66.2 °F - 33.8 °F 30% 30.42 in 10.0 mi NNE 20.7 mph 24.2 mph N/A   Clear
1:55 PM 66.2 °F - 32.0 °F 28% 30.42 in 10.0 mi NE 18.4 mph 25.3 mph N/A   Clear
2:15 PM 66.2 °F - 30.2 °F 26% 30.41 in 10.0 mi NE 16.1 mph 27.6 mph N/A   Clear
2:35 PM 66.2 °F - 28.4 °F 24% 30.40 in 10.0 mi NNE 18.4 mph 27.6 mph N/A   Clear
2:55 PM 66.2 °F - 26.6 °F 23% 30.40 in 10.0 mi NE 16.1 mph 24.2 mph N/A   Clear
3:15 PM 66.2 °F - 28.4 °F 24% 30.39 in 10.0 mi NE 16.1 mph 23.0 mph N/A   Clear
3:35 PM 68.0 °F - 28.4 °F 23% 30.39 in 10.0 mi NNE 16.1 mph 24.2 mph N/A   Partly Cloudy
3:55 PM 66.2 °F - 28.4 °F 24% 30.38 in 10.0 mi NNE 16.1 mph - N/A   Scattered Clouds
4:15 PM 66.2 °F - 28.4 °F 24% 30.38 in 10.0 mi NNE 17.3 mph 23.0 mph N/A   Partly Cloudy
4:35 PM 66.2 °F - 28.4 °F 24% 30.38 in 10.0 mi NNE 15.0 mph 24.2 mph N/A   Clear
4:55 PM 66.2 °F - 30.2 °F 26% 30.38 in 10.0 mi NE 18.4 mph 24.2 mph N/A   Clear
5:15 PM 66.2 °F - 28.4 °F 24% 30.38 in 10.0 mi NE 16.1 mph 21.9 mph N/A   Mostly Cloudy
5:35 PM 64.4 °F - 28.4 °F 26% 30.38 in 10.0 mi NNE 17.3 mph - N/A   Overcast
5:55 PM 62.6 °F - 30.2 °F 30% 30.38 in 10.0 mi NE 17.3 mph - N/A   Overcast
6:15 PM 62.6 °F - 28.4 °F 27% 30.37 in 10.0 mi NE 13.8 mph - N/A   Overcast
6:35 PM 62.6 °F - 28.4 °F 27% 30.37 in 10.0 mi NNE 13.8 mph - N/A   Overcast
6:55 PM 60.8 °F - 30.2 °F 31% 30.37 in 10.0 mi NE 13.8 mph 17.3 mph N/A   Mostly Cloudy
7:15 PM 60.8 °F - 32.0 °F 34% 30.37 in 10.0 mi NE 9.2 mph - N/A   Mostly Cloudy
7:35 PM 60.8 °F - 33.8 °F 36% 30.37 in 10.0 mi NE 6.9 mph - N/A   Mostly Cloudy
7:55 PM 60.8 °F - 35.6 °F 39% 30.37 in 10.0 mi ENE 6.9 mph - N/A   Overcast
8:15 PM 60.8 °F - 35.6 °F 39% 30.37 in 10.0 mi ENE 4.6 mph - N/A   Overcast
8:35 PM 60.8 °F - 37.4 °F 42% 30.37 in 10.0 mi NE 5.8 mph - N/A   Overcast
8:55 PM 60.8 °F - 35.6 °F 39% 30.38 in 10.0 mi NNE 5.8 mph - N/A   Overcast
9:15 PM 60.8 °F - 35.6 °F 39% 30.38 in 10.0 mi NE 6.9 mph - N/A   Overcast
9:35 PM 60.8 °F - 37.4 °F 42% 30.38 in 10.0 mi NE 5.8 mph - N/A   Overcast
9:55 PM 59.0 °F - 37.4 °F 45% 30.38 in 10.0 mi ENE 4.6 mph - N/A   Overcast
10:35 PM 59.0 °F - 39.2 °F 48% 30.38 in 10.0 mi NNE 6.9 mph - N/A   Overcast
10:55 PM 59.0 °F - 39.2 °F 48% 30.38 in 10.0 mi NNE 8.1 mph - N/A   Overcast
11:15 PM 55.4 °F - 39.2 °F 54% 30.38 in 10.0 mi North 6.9 mph - N/A   Partly Cloudy
11:35 PM 53.6 °F - 39.2 °F 58% 30.38 in 10.0 mi North 6.9 mph - N/A   Clear
11:55 PM 53.6 °F - 39.2 °F 58% 30.37 in 10.0 mi NNE 5.8 mph - N/A   Mostly Cloudy